Retour au catalogue

TITAN 401 CENTAUR R/B

ActifGEO
NORAD 23713·ROCKET BODY·🇺🇸 United States

Lancé Nov 6, 1995 depuis Cape Canaveral Space Force Station

Loading…

TLE

FraisSource: Space-Track

Époque: Sep 13, 2026, 03:36 UTC

1 23713U 95060B   26256.15029803 -.00000290  00000-0  00000-0 0  9997
2 23713  14.4024 358.1646 0036705 227.5848 132.1262  1.00589815 26319

Suivez TITAN 401 CENTAUR R/B en temps réel avec AllMySat

Download on the App Store